When you browse on this site, cookies collect data to enhance your experience and personalize the content and advertising you see.
Visit our Privacy Policy to learn more. By continuing to use the site, you agree to this use of cookies and data.
  • In Hungary
  • List of Countries
  • For 7 days
  • Water Temperature
  • Satellite Maps
  • Weather Map
  • News
  • Weather Widgets
  • user-avatar
    Login

    Hourly Weather Katghora

    Today, 21 April, Sunday

    Time Temperature Precipitation Wind Pressure Humidity
    00:00 +31°C° 0 mm 1 mps 727 mmHg 34%
    01:00 +31°C° 0 mm 1 mps 727 mmHg 35%
    02:00 +28°C° 0 mm 0 mps 727 mmHg 37%
    03:00 +27°C° 0 mm 0 mps 726 mmHg 38%
    04:00 +27°C° 0.1 mm 0 mps 727 mmHg 40%
    05:00 +29°C° 0.1 mm 1 mps 727 mmHg 41%
    06:00 +28°C° 0 mm 1 mps 727 mmHg 47%
    07:00 +30°C° 0.3 mm 1 mps 727 mmHg 44%
    08:00 +32°C° 0.3 mm 2 mps 728 mmHg 40%
    09:00 +36°C° 0.3 mm 2 mps 728 mmHg 37%
    10:00 +37°C° 0 mm 2 mps 728 mmHg 32%
    11:00 +39°C° 0 mm 3 mps 728 mmHg 27%
    12:00 +42°C° 0 mm 3 mps 728 mmHg 22%
    13:00 +40°C° 0 mm 2 mps 728 mmHg 22%
    14:00 +39°C° 0 mm 2 mps 727 mmHg 22%
    15:00 +39°C° 0 mm 1 mps 726 mmHg 22%
    16:00 +39°C° 0 mm 2 mps 726 mmHg 20%
    17:00 +39°C° 0 mm 2 mps 725 mmHg 18%
    18:00 +40°C° 0 mm 2 mps 725 mmHg 16%
    19:00 +38°C° 0 mm 2 mps 725 mmHg 18%
    20:00 +36°C° 0 mm 2 mps 725 mmHg 20%
    21:00 +32°C° 0 mm 2 mps 725 mmHg 21%
    22:00 +32°C° 0 mm 1 mps 726 mmHg 21%
    23:00 +31°C° 0 mm 1 mps 726 mmHg 21%

    Tomorrow, 22 April, Monday

    Time Temperature Precipitation Wind Pressure Humidity
    00:00 +30°C° 0 mm 1 mps 727 mmHg 21%
    01:00 +30°C° 0 mm 1 mps 726 mmHg 24%
    02:00 +29°C° 0 mm 1 mps 726 mmHg 26%
    03:00 +28°C° 0 mm 1 mps 726 mmHg 29%
    04:00 +28°C° 0 mm 1 mps 726 mmHg 33%
    05:00 +27°C° 0 mm 1 mps 727 mmHg 38%
    06:00 +25°C° 0 mm 0 mps 727 mmHg 43%
    07:00 +29°C° 0 mm 1 mps 728 mmHg 41%
    08:00 +31°C° 0 mm 1 mps 728 mmHg 39%
    09:00 +35°C° 0 mm 2 mps 729 mmHg 37%
    10:00 +37°C° 0 mm 2 mps 729 mmHg 30%
    11:00 +40°C° 0 mm 1 mps 729 mmHg 23%
    12:00 +42°C° 0 mm 1 mps 729 mmHg 16%
    13:00 +42°C° 0 mm 2 mps 728 mmHg 14%
    14:00 +43°C° 0 mm 2 mps 727 mmHg 12%
    15:00 +44°C° 0 mm 3 mps 727 mmHg 10%
    16:00 +43°C° 0 mm 3 mps 726 mmHg 10%
    17:00 +43°C° 0 mm 3 mps 726 mmHg 10%
    18:00 +42°C° 0 mm 3 mps 726 mmHg 10%
    19:00 +39°C° 0 mm 3 mps 726 mmHg 12%
    20:00 +37°C° 0 mm 2 mps 727 mmHg 14%
    21:00 +35°C° 0 mm 2 mps 727 mmHg 16%
    22:00 +34°C° 0 mm 2 mps 727 mmHg 17%
    23:00 +32°C° 0 mm 1 mps 727 mmHg 18%

    Day after tomorrow, 23 April, Tuesday

    Time Temperature Precipitation Wind Pressure Humidity
    00:00 +32°C° 0 mm 1 mps 727 mmHg 19%
    01:00 +31°C° 0 mm 1 mps 727 mmHg 19%
    02:00 +31°C° 0 mm 1 mps 727 mmHg 20%
    03:00 +30°C° 0 mm 1 mps 726 mmHg 21%
    04:00 +30°C° 0 mm 1 mps 727 mmHg 21%
    05:00 +29°C° 0 mm 1 mps 727 mmHg 22%
    06:00 +29°C° 0 mm 1 mps 727 mmHg 22%
    07:00 +32°C° 0 mm 1 mps 728 mmHg 20%
    08:00 +35°C° 0 mm 1 mps 729 mmHg 17%
    09:00 +39°C° 0 mm 1 mps 729 mmHg 14%
    10:00 +41°C° 0 mm 1 mps 729 mmHg 12%
    11:00 +43°C° 0 mm 1 mps 729 mmHg 11%
    12:00 +45°C° 0 mm 1 mps 730 mmHg 9%
    13:00 +45°C° 0 mm 2 mps 729 mmHg 9%
    14:00 +45°C° 0 mm 2 mps 728 mmHg 10%
    15:00 +44°C° 0 mm 3 mps 727 mmHg 10%
    16:00 +42°C° 0 mm 2 mps 727 mmHg 11%
    17:00 +42°C° 0 mm 2 mps 727 mmHg 12%
    18:00 +41°C° 0 mm 2 mps 726 mmHg 12%
    19:00 +39°C° 0 mm 1 mps 727 mmHg 14%
    20:00 +36°C° 0 mm 1 mps 727 mmHg 16%
    21:00 +34°C° 0 mm 1 mps 728 mmHg 17%
    22:00 +33°C° 0 mm 1 mps 728 mmHg 18%
    23:00 +33°C° 0 mm 1 mps 728 mmHg 19%

    24 April, Wednesday

    Time Temperature Precipitation Wind Pressure Humidity
    00:00 +32°C° 0 mm 1 mps 728 mmHg 19%
    01:00 +32°C° 0 mm 1 mps 728 mmHg 21%
    02:00 +31°C° 0 mm 1 mps 727 mmHg 22%
    03:00 +30°C° 0 mm 1 mps 727 mmHg 24%
    04:00 +30°C° 0 mm 1 mps 727 mmHg 27%
    05:00 +29°C° 0 mm 1 mps 727 mmHg 30%
    06:00 +29°C° 0 mm 1 mps 728 mmHg 33%
    07:00 +31°C° 0 mm 2 mps 728 mmHg 31%
    08:00 +35°C° 0 mm 2 mps 729 mmHg 29%
    09:00 +37°C° 0 mm 2 mps 730 mmHg 27%
    10:00 +39°C° 0 mm 2 mps 730 mmHg 21%
    11:00 +42°C° 0 mm 2 mps 730 mmHg 16%
    12:00 +45°C° 0 mm 3 mps 729 mmHg 10%
    13:00 +46°C° 0 mm 2 mps 729 mmHg 9%
    14:00 +47°C° 0 mm 2 mps 728 mmHg 8%
    15:00 +47°C° 0 mm 2 mps 727 mmHg 7%
    16:00 +47°C° 0 mm 2 mps 726 mmHg 7%
    17:00 +46°C° 0 mm 2 mps 726 mmHg 8%
    18:00 +45°C° 0 mm 2 mps 726 mmHg 8%
    19:00 +42°C° 0 mm 2 mps 726 mmHg 10%
    20:00 +39°C° 0 mm 1 mps 727 mmHg 11%
    21:00 +36°C° 0 mm 1 mps 727 mmHg 13%
    22:00 +35°C° 0 mm 1 mps 727 mmHg 14%
    23:00 +34°C° 0 mm 1 mps 727 mmHg 14%

    25 April, Thursday

    Time Temperature Precipitation Wind Pressure Humidity
    00:00 +33°C° 0 mm 1 mps 727 mmHg 15%
    01:00 +32°C° 0 mm 1 mps 727 mmHg 16%
    02:00 +32°C° 0 mm 1 mps 727 mmHg 17%
    03:00 +31°C° 0 mm 1 mps 726 mmHg 17%
    04:00 +31°C° 0 mm 1 mps 727 mmHg 18%
    05:00 +28°C° 0 mm 0 mps 727 mmHg 18%
    06:00 +27°C° 0 mm 0 mps 727 mmHg 19%
    07:00 +32°C° 0 mm 1 mps 728 mmHg 17%
    08:00 +36°C° 0 mm 2 mps 729 mmHg 16%
    09:00 +39°C° 0 mm 2 mps 730 mmHg 15%
    10:00 +41°C° 0 mm 2 mps 730 mmHg 13%
    11:00 +43°C° 0 mm 2 mps 729 mmHg 11%
    12:00 +47°C° 0 mm 2 mps 729 mmHg 10%
    13:00 +47°C° 0 mm 2 mps 728 mmHg 9%
    14:00 +47°C° 0 mm 3 mps 727 mmHg 9%
    15:00 +48°C° 0 mm 3 mps 727 mmHg 8%
    16:00 +47°C° 0 mm 3 mps 726 mmHg 8%
    17:00 +47°C° 0 mm 3 mps 726 mmHg 9%
    18:00 +46°C° 0 mm 3 mps 726 mmHg 9%
    19:00 +44°C° 0 mm 3 mps 726 mmHg 11%
    20:00 +40°C° 0 mm 2 mps 726 mmHg 13%
    21:00 +37°C° 0 mm 1 mps 727 mmHg 15%
    22:00 +36°C° 0 mm 1 mps 727 mmHg 16%
    23:00 +35°C° 0 mm 1 mps 727 mmHg 16%

    26 April, Friday

    Time Temperature Precipitation Wind Pressure Humidity
    00:00 +35°C° 0 mm 1 mps 727 mmHg 17%
    01:00 +35°C° 0 mm 2 mps 726 mmHg 18%
    02:00 +34°C° 0 mm 2 mps 726 mmHg 19%
    03:00 +34°C° 0 mm 2 mps 725 mmHg 20%
    04:00 +32°C° 0 mm 1 mps 726 mmHg 22%
    05:00 +32°C° 0 mm 1 mps 726 mmHg 23%
    06:00 +29°C° 0 mm 0 mps 726 mmHg 24%
    07:00 +32°C° 0 mm 0 mps 727 mmHg 22%
    08:00 +37°C° 0 mm 1 mps 728 mmHg 20%
    09:00 +41°C° 0 mm 1 mps 729 mmHg 18%
    10:00 +43°C° 0 mm 1 mps 729 mmHg 15%
    11:00 +46°C° 0 mm 1 mps 728 mmHg 13%
    12:00 +48°C° 0 mm 1 mps 728 mmHg 10%
    13:00 +48°C° 0 mm 1 mps 728 mmHg 9%
    14:00 +49°C° 0 mm 2 mps 727 mmHg 8%
    15:00 +49°C° 0 mm 2 mps 726 mmHg 7%
    16:00 +48°C° 0 mm 2 mps 726 mmHg 8%
    17:00 +47°C° 0 mm 2 mps 726 mmHg 8%
    18:00 +46°C° 0 mm 2 mps 726 mmHg 8%
    19:00 +43°C° 0 mm 2 mps 726 mmHg 10%
    20:00 +41°C° 0 mm 2 mps 726 mmHg 11%
    21:00 +39°C° 0 mm 2 mps 727 mmHg 13%
    22:00 +37°C° 0 mm 1 mps 727 mmHg 13%
    23:00 +36°C° 0 mm 1 mps 727 mmHg 14%
    Show more